GEFSMA_500_meanwind_150.txt.gz
Wind_Speed
10 9 8 7 6 5 4 3 3 2 2 2 3 3 3 2 1 1 2 2 1 2 2 2 2 2 3 3 3 4 5 5 5 5 5 5 5 5 5 5 5 5 5
11 10 10 9 8 6 5 4 4 3 3 3 3 3 2 1 1 1 1 1 1 1 2 2 2 2 2 3 3 3 4 5 5 5 5 5 5 5 5 5 5 5 6
12 11 11 11 9 8 7 5 5 4 4 3 3 3 3 2 1 1 1 1 1 2 2 2 2 2 2 3 3 2 3 4 5 5 5 5 5 5 5 5 5 6 6
13 12 13 12 11 9 8 7 6 5 5 4 4 3 3 3 2 1 2 2 2 2 2 2 2 2 2 2 2 2 3 3 4 5 5 4 4 4 5 5 5 6 6
14 14 14 14 13 11 9 8 7 7 6 6 5 4 3 3 3 2 2 2 2 2 2 2 2 2 2 1 2 2 3 3 3 4 5 4 5 5 5 6 6 6 6
16 15 15 15 14 12 11 10 9 8 7 7 6 5 4 4 4 3 2 2 2 3 3 2 2 2 2 2 2 2 3 3 3 4 4 4 5 5 6 6 7 7 6
17 15 15 15 15 14 12 12 10 10 9 8 6 5 5 5 5 4 4 4 3 4 4 4 3 3 3 3 3 3 3 3 3 3 4 4 5 5 6 7 7 7 7
18 16 15 15 15 15 14 12 12 11 10 9 8 7 6 6 5 5 5 5 5 4 4 4 5 4 4 4 4 4 4 4 4 5 5 5 6 6 7 8 8 8 8
20 18 17 16 16 16 15 14 14 13 12 11 10 8 7 7 7 7 6 6 6 6 6 6 6 5 5 5 5 5 5 5 5 6 6 7 7 8 8 9 9 10 11
20 20 19 18 17 17 16 16 15 15 13 12 11 10 9 9 8 8 8 8 8 7 7 7 7 7 6 6 6 6 6 7 8 8 9 9 10 10 10 10 11 12 13
20 20 20 19 18 17 17 17 16 16 15 14 13 12 12 11 10 10 10 10 10 9 9 9 9 9 9 9 8 8 9 9 10 10 11 12 12 12 12 13 13 14 14
19 19 19 19 19 18 18 18 18 17 17 16 16 15 14 13 13 12 12 12 12 11 11 11 11 11 11 11 11 11 11 12 12 13 14 14 14 14 15 15 15 16 16
19 19 19 19 20 20 19 19 19 19 18 18 17 17 16 16 15 14 14 14 14 14 13 14 13 14 14 14 14 14 14 15 15 15 16 16 16 17 17 17 18 19 19
19 20 20 20 20 21 20 20 20 20 20 19 19 19 18 18 17 17 17 16 16 16 16 16 16 16 16 17 17 18 18 18 18 18 18 19 19 20 20 20 21 21 22
20 20 20 20 21 21 22 21 21 21 21 21 21 20 20 20 20 20 19 19 18 18 18 18 18 19 19 20 20 21 21 21 21 21 22 22 22 23 23 24 24 24 24
20 20 20 20 21 21 22 22 21 22 22 21 22 22 22 22 21 21 21 21 22 22 21 21 21 22 22 23 23 23 23 24 24 24 25 25 25 26 26 26 27 27 27
18 19 19 21 21 22 23 22 22 22 23 23 23 23 23 24 23 23 23 24 24 24 25 24 24 24 25 25 25 26 26 27 27 28 28 28 28 28 29 29 29 30 30
18 18 19 20 21 22 22 22 23 23 24 24 24 24 24 26 26 25 26 26 26 26 26 26 26 27 27 27 28 28 29 30 31 31 31 32 32 32 32 33 33 33 33
18 18 19 19 20 21 21 22 23 23 24 24 25 25 26 26 26 27 27 27 28 29 28 28 28 29 29 29 30 31 32 32 33 34 34 35 35 35 35 36 36 36 37
17 17 18 19 20 20 21 22 23 24 24 24 25 26 26 27 28 27 27 28 29 29 30 30 30 31 31 32 33 33 34 35 35 36 36 37 38 38 38 39 39 39 40
17 18 19 19 20 20 21 22 23 24 24 25 26 26 26 27 28 28 29 30 30 32 32 32 32 33 33 34 35 36 37 37 37 39 39 40 41 41 41 42 42 43 43
18 19 20 20 20 21 21 22 23 23 24 26 27 27 28 28 29 30 30 31 32 32 32 33 34 34 34 36 37 37 38 39 40 41 42 42 43 44 44 45 45 46 47
17 19 21 22 22 21 21 22 23 23 24 25 26 27 27 28 29 30 30 31 33 34 35 35 35 36 38 39 39 39 40 41 42 43 44 44 45 45 46 47 47 48 49
15 17 19 20 21 21 22 22 22 23 25 25 26 27 27 28 29 31 32 33 34 35 36 36 37 38 39 40 41 42 43 44 45 46 46 46 47 48 49 50 51 52 52
15 17 19 20 21 21 22 23 23 24 25 25 26 27 29 30 30 31 32 33 35 36 36 37 39 40 41 42 43 45 46 47 47 48 49 50 51 51 52 53 54 55 55
16 17 18 20 22 22 22 22 23 24 24 25 26 28 30 31 32 32 34 35 36 36 38 39 41 42 43 45 46 47 48 49 50 51 52 53 54 54 55 55 56 58 59

GEFSMA_500_meanwind_156.txt.gz
Wind_Speed
8 8 8 8 6 4 4 4 3 3 3 2 2 2 2 1 1 0 0 0 1 1 1 1 1 2 2 1 2 2 3 3 3 3 3 3 3 3 3 3 3 3 4
10 9 9 8 7 6 5 5 4 3 3 3 2 1 2 1 0 0 0 1 1 1 1 1 1 1 1 1 2 2 2 3 3 3 3 3 3 3 3 3 3 3 4
10 10 9 9 9 8 7 6 5 4 3 3 3 2 2 2 1 1 1 1 1 1 1 1 1 1 1 2 2 2 2 2 3 3 4 4 4 3 3 3 4 4 4
11 11 11 10 10 9 8 7 6 4 4 4 3 3 2 2 1 1 2 2 2 1 1 1 1 1 1 2 2 2 2 2 2 3 3 4 4 4 4 4 4 5 5
13 13 12 11 11 11 9 8 7 6 5 5 4 4 3 3 2 2 2 2 1 1 1 1 1 1 2 1 1 2 2 1 2 2 3 3 4 4 4 4 5 4 5
14 14 14 12 12 12 11 10 9 8 7 6 6 5 4 4 3 3 3 2 2 2 2 2 1 1 2 2 2 2 2 2 2 2 2 3 3 4 4 5 5 5 5
15 15 15 14 13 13 12 11 11 10 8 7 7 6 6 5 4 4 4 3 3 2 2 2 2 2 2 2 2 2 2 2 2 3 3 3 3 4 5 6 6 7 7
15 16 16 15 15 14 13 13 12 11 10 9 8 8 7 6 6 5 5 4 4 4 3 3 3 3 3 3 3 2 3 3 3 4 5 5 5 6 6 7 8 8 8
16 16 16 16 15 15 15 14 13 12 11 11 10 9 8 8 7 6 6 5 5 5 5 5 4 4 4 4 3 3 4 4 5 5 5 6 7 7 8 9 9 9 10
16 16 16 16 17 16 16 16 15 14 13 13 12 11 10 10 9 8 8 7 7 7 7 7 6 5 5 5 5 6 6 6 7 7 7 7 8 8 9 10 10 11 11
16 17 17 16 16 17 17 17 16 16 15 14 14 13 12 11 11 10 10 10 9 9 9 9 8 8 8 8 8 8 8 8 8 8 9 9 10 11 11 11 12 13 13
16 16 17 17 17 18 18 18 17 17 17 16 16 15 14 13 13 13 12 12 11 11 10 11 11 11 10 10 10 11 11 11 11 11 12 12 13 13 14 14 14 15 16
16 16 17 18 18 18 19 19 19 19 19 18 18 17 17 16 16 15 15 14 13 13 13 14 14 13 13 13 13 13 14 14 14 15 15 15 15 16 16 17 17 18 18
16 16 17 18 18 18 19 20 20 20 20 19 19 19 19 18 18 18 17 17 17 17 16 16 16 16 16 16 16 16 17 17 17 18 18 18 19 19 20 20 20 21 21
16 17 17 18 18 18 19 20 21 21 20 21 21 21 21 21 20 20 20 20 19 19 19 19 19 19 19 19 19 19 19 20 20 20 21 22 22 23 23 23 23 23 23
16 17 19 19 19 19 20 20 21 21 21 21 21 21 20 21 22 22 22 22 22 22 21 21 21 22 22 21 22 22 22 23 24 24 24 24 25 25 26 26 27 27 27
15 17 17 18 18 19 19 20 21 21 22 21 21 21 22 22 23 24 24 24 24 24 24 24 24 23 24 24 24 24 24 26 26 27 27 27 27 28 28 29 30 30 30
15 15 16 17 18 19 19 20 20 22 22 23 22 22 23 24 24 25 25 26 26 26 26 26 25 25 25 26 26 27 26 27 27 28 29 30 30 31 31 31 32 32 32
14 14 16 17 18 18 19 20 21 21 22 23 23 23 24 24 25 25 26 27 27 27 27 27 27 27 27 27 28 29 29 29 29 29 30 31 31 32 32 33 33 34 35
13 14 15 17 17 18 19 20 21 21 22 22 23 24 24 24 25 26 26 26 27 28 28 28 28 29 29 30 30 31 30 31 32 32 31 32 32 33 34 35 36 37 38
14 13 14 16 18 19 19 20 21 21 21 22 23 24 24 25 26 27 27 28 29 29 30 30 30 31 32 33 33 33 32 33 33 34 35 35 36 36 37 38 39 40 41
13 14 15 16 18 19 20 20 20 21 22 23 24 25 26 27 28 29 29 30 30 31 32 32 33 33 34 34 34 34 35 35 36 37 38 38 39 39 40 41 41 41 42
14 15 16 17 18 19 20 21 21 22 23 24 25 26 26 27 28 28 28 30 31 31 31 32 33 34 34 34 35 36 36 37 38 38 39 39 41 41 42 43 43 44 45
15 15 16 18 18 19 19 20 23 24 24 25 26 27 27 28 28 28 28 29 29 30 32 33 34 35 35 36 37 37 37 38 39 41 42 42 43 44 45 46 46 47 47
16 16 17 17 17 18 18 19 21 23 24 25 26 27 28 28 28 29 29 29 30 31 32 33 34 35 36 37 38 38 39 41 42 43 44 45 46 46 48 49 49 50 51
17 17 18 18 17 17 18 19 21 23 24 25 26 27 28 29 29 30 30 30 30 31 33 34 35 36 36 37 38 40 41 42 44 44 45 47 48 50 50 51 52 53 53

GEFSMA_500_meanwind_162.txt.gz
Wind_Speed
5 5 5 4 4 3 3 3 3 2 1 1 1 1 1 1 1 1 1 1 1 1 1 2 2 2 2 2 2 2 2 3 3 4 4 4 4 4 3 3 3 3 3
7 6 6 5 5 4 3 3 3 2 2 2 2 2 2 1 1 1 1 1 1 1 1 1 1 1 2 2 2 2 2 3 3 4 4 5 5 4 4 4 3 3 4
8 8 7 6 6 5 4 4 4 3 3 2 3 3 2 2 2 2 2 2 2 2 1 1 1 1 1 1 2 2 2 3 3 4 4 4 5 5 4 4 4 4 4
10 10 9 8 8 7 6 6 5 5 4 4 4 4 3 3 3 3 3 3 3 2 2 2 2 1 1 1 2 2 2 3 3 3 4 4 4 4 4 5 5 5 5
11 11 10 10 9 8 8 7 7 6 5 5 5 5 4 3 4 4 4 4 4 3 3 3 2 2 2 2 2 2 2 2 3 3 3 4 4 4 5 5 5 5 5
12 12 11 11 11 10 9 9 9 8 7 6 6 6 5 5 4 5 4 4 4 4 3 3 3 3 3 3 3 3 3 3 3 3 3 3 4 5 6 6 6 6 6
12 13 13 12 12 12 11 11 11 10 9 8 8 8 7 6 6 6 6 5 5 5 5 4 4 4 3 3 3 4 4 4 3 3 4 4 4 5 6 6 6 7 7
12 13 14 13 13 13 13 12 12 12 11 10 10 9 8 8 7 7 7 7 7 7 7 6 6 5 5 5 5 5 5 5 5 5 5 5 5 5 6 7 7 8 8
14 14 15 15 15 15 14 14 13 13 13 12 12 11 10 10 9 9 9 9 9 9 8 8 8 7 7 7 7 7 7 7 7 7 7 7 7 7 8 8 8 9 9
14 15 15 15 15 16 16 16 15 15 14 14 14 13 12 12 11 11 10 11 10 10 10 10 10 10 9 9 9 9 9 9 9 9 9 9 9 9 9 10 10 11 11
13 14 15 16 16 17 18 17 17 17 16 16 16 15 15 14 14 13 12 12 12 12 12 12 12 11 11 11 12 12 12 11 11 12 12 12 12 12 12 12 12 13 13
13 14 15 17 16 17 18 19 19 18 18 17 17 17 17 16 16 15 15 15 15 14 14 14 14 14 14 14 14 14 15 15 14 15 15 15 15 15 15 15 15 15 16
13 14 14 16 16 17 18 18 19 19 19 19 18 18 18 18 18 17 17 17 17 16 16 16 16 17 17 17 17 17 18 18 17 17 17 18 18 18 19 18 18 19 19
12 14 14 15 16 17 17 18 18 19 19 19 19 19 19 19 18 18 19 19 19 18 18 18 18 19 20 19 19 19 20 20 20 20 20 20 21 21 21 21 21 22 22
12 13 14 15 16 17 18 19 20 19 19 19 19 19 20 20 20 20 20 20 20 20 20 20 20 21 21 21 21 22 22 23 23 23 23 24 24 24 24 24 24 24 25
13 14 14 15 16 18 19 19 20 20 20 20 21 21 21 21 21 21 21 21 21 21 21 21 22 22 23 23 23 24 24 24 25 25 25 26 26 27 27 27 27 27 28
13 14 15 15 16 17 19 20 20 20 20 20 21 21 21 22 22 23 23 23 23 24 24 24 24 24 25 25 26 26 26 26 25 26 27 27 28 28 29 29 29 30 31
12 13 15 16 17 17 18 19 20 20 21 21 21 22 22 23 23 23 23 24 24 25 25 25 25 26 26 27 28 28 28 28 28 27 28 28 29 29 30 30 31 32 33
10 12 13 14 15 17 17 18 18 19 20 20 22 22 22 22 23 23 24 25 25 25 26 27 28 29 29 29 30 30 30 30 31 31 32 32 32 33 33 33 33 34 35
11 12 12 13 14 15 16 17 17 19 20 20 22 23 23 23 23 24 25 26 27 27 28 29 30 31 31 31 32 33 33 33 33 34 34 35 35 36 36 36 36 37 38
11 11 12 12 12 13 14 16 17 18 19 20 21 22 23 23 24 24 26 27 28 29 29 30 31 32 32 32 32 34 34 35 34 34 35 35 36 37 38 38 38 39 40
11 11 11 12 12 13 14 15 16 16 17 19 20 21 21 23 24 25 26 28 28 28 29 30 31 32 32 32 32 33 34 34 35 36 37 37 38 39 40 40 40 42 42
11 11 11 12 13 13 14 15 16 17 18 20 21 22 23 23 24 25 26 27 27 27 29 30 31 31 32 31 32 34 35 36 37 38 39 39 41 41 42 43 44 44 45
10 10 10 11 12 13 14 15 17 18 19 20 21 22 23 24 25 25 26 26 27 28 29 31 31 31 31 33 34 35 36 37 37 38 39 40 41 43 44 45 46 46 47
11 11 12 13 13 13 14 15 16 18 19 20 21 22 24 24 25 26 27 28 28 28 29 30 31 33 34 35 35 35 36 37 38 40 41 42 43 44 45 46 48 48 49
12 12 13 14 14 15 16 17 17 18 18 19 21 22 24 25 26 27 27 28 28 29 30 31 33 34 34 34 35 35 36 37 38 40 41 43 44 45 45 46 48 50 51

GEFSMA_500_meanwind_168.txt.gz
Wind_Speed
3 2 2 2 1 1 1 1 1 1 1 0 0 0 1 0 1 1 1 2 2 2 3 3 3 3 2 2 3 3 3 3 4 4 4 4 4 4 4 4 3 3 3
4 4 4 3 3 3 2 2 2 2 2 1 1 1 1 1 1 1 1 2 2 2 3 3 3 3 3 3 3 3 3 3 4 5 5 5 4 4 5 5 5 4 4
6 5 5 5 4 4 3 4 3 3 2 2 2 2 2 2 2 2 2 2 3 3 3 3 3 3 4 4 3 3 4 4 4 5 5 5 5 5 5 5 5 5 5
7 7 7 6 6 6 5 5 5 5 4 3 3 3 3 3 3 3 3 3 3 3 4 4 4 4 4 4 4 4 4 4 5 5 5 5 5 5 5 5 6 6 6
9 9 9 8 8 8 7 6 7 7 6 5 5 4 4 4 3 4 4 4 4 4 4 4 4 4 5 5 5 5 5 5 5 5 5 5 5 5 5 6 6 7 7
10 10 11 11 10 10 9 8 8 8 8 7 6 6 6 5 4 5 5 5 5 5 5 5 5 5 5 6 6 6 6 6 6 6 6 6 6 6 7 7 7 8 8
11 11 12 12 12 12 11 10 10 10 10 9 8 7 7 7 6 6 6 6 6 6 6 6 6 7 7 7 7 7 7 7 7 7 7 7 7 7 8 9 9 9 9
13 13 14 14 13 13 13 12 12 11 11 11 10 9 9 8 8 8 8 8 8 8 8 8 8 9 8 8 8 8 8 8 8 8 8 8 9 9 10 10 10 11 11
14 15 15 15 15 14 14 14 13 13 13 13 12 12 11 11 10 10 10 10 10 10 10 10 10 10 10 10 10 10 10 10 10 11 11 11 11 11 12 12 13 13 13
14 14 14 15 15 16 16 16 16 15 15 14 14 14 14 14 13 13 13 12 12 12 12 12 12 12 12 13 12 12 12 12 12 13 13 13 13 14 15 15 15 15 15
13 14 14 14 15 16 17 17 17 18 17 17 16 16 16 16 16 16 15 15 15 14 14 14 14 15 15 15 15 15 15 15 16 16 16 16 16 17 17 18 17 17 17
12 13 13 15 16 16 17 17 18 19 19 18 18 18 18 18 18 18 18 17 17 17 17 17 17 17 17 17 17 18 18 19 19 19 19 19 19 19 20 20 20 20 20
12 13 13 14 15 16 17 17 18 19 20 20 20 20 20 20 20 19 20 20 20 20 19 19 18 19 19 20 20 20 20 21 22 22 22 21 22 22 23 23 23 23 23
13 14 14 15 15 16 17 18 19 20 20 21 21 21 21 21 21 21 21 21 21 21 21 21 20 20 20 21 21 22 22 23 24 25 24 24 24 25 26 26 26 26 26
12 13 14 16 16 16 17 18 19 20 21 21 22 22 22 23 23 23 22 22 23 23 23 23 22 22 23 22 23 23 24 24 25 26 26 26 26 27 27 27 28 28 29
13 13 15 16 16 16 17 17 18 19 21 21 22 23 23 23 23 23 24 23 23 24 24 25 25 24 25 25 25 26 27 27 27 28 29 29 29 30 30 30 30 30 31
12 13 15 16 16 17 18 18 19 20 21 21 22 23 24 23 23 24 24 24 25 25 25 26 27 27 28 28 28 29 29 29 29 30 31 32 32 33 33 33 33 33 34
12 14 14 14 15 17 18 19 20 20 21 22 22 22 23 24 24 24 24 25 26 26 26 27 27 28 29 30 30 30 30 31 31 32 32 33 34 34 35 35 36 36 36
13 13 13 14 15 16 17 18 19 20 21 22 22 22 23 23 23 24 24 26 26 27 27 28 28 29 29 29 30 32 32 32 33 34 35 36 36 37 38 39 39 39 39
12 12 12 13 14 15 16 17 18 19 19 20 21 22 22 23 24 24 26 27 28 29 29 29 29 30 30 30 32 33 33 34 35 36 36 37 38 39 40 41 41 41 41
13 13 13 14 14 15 15 16 16 18 18 19 20 21 23 23 24 25 26 27 29 29 29 29 29 30 31 32 33 34 34 34 35 36 37 38 39 40 41 42 43 42 42
14 14 14 14 14 14 14 15 15 16 17 18 19 21 22 23 24 26 27 28 29 29 29 29 29 30 32 33 33 33 34 34 36 37 38 39 40 41 42 42 42 43 44
13 13 14 15 15 15 14 15 15 16 17 18 19 21 23 24 25 26 26 27 28 28 29 30 31 31 33 34 35 35 35 35 36 38 39 39 40 41 41 41 42 43 43
13 13 12 13 12 12 12 13 15 16 17 18 19 21 22 23 25 25 26 27 28 29 30 31 31 32 34 35 35 36 36 37 38 38 38 38 38 38 39 39 40 42 43
12 11 12 12 13 13 14 14 16 17 18 19 21 21 22 23 24 26 27 28 29 30 31 31 33 34 35 34 34 34 36 37 37 37 37 38 38 38 40 41 41 42 43
12 13 13 13 14 15 15 15 17 18 19 20 20 21 22 23 23 25 26 27 29 31 31 32 33 33 34 34 34 34 35 36 37 37 38 38 39 40 41 41 42 43 44

GEFSMA_500_meanwind_174.txt.gz
Wind_Speed
4 4 5 4 3 2 3 4 4 4 3 3 2 2 2 2 1 1 1 1 1 1 1 1 2 2 2 2 2 2 2 2 3 3 3 3 3 3 3 3 3 3 2
5 5 5 5 4 3 3 4 3 3 3 3 2 2 2 2 1 1 1 0 0 0 1 2 2 2 2 2 2 1 2 2 3 3 3 3 3 3 3 3 3 4 3
6 6 6 6 6 5 4 4 5 4 4 3 3 3 2 2 2 2 2 2 1 1 2 2 2 2 2 3 2 2 2 3 3 3 4 4 4 4 4 4 5 5 5
8 8 8 7 7 6 6 5 6 6 6 5 4 4 4 3 3 2 2 3 2 2 2 3 2 3 3 3 3 3 3 4 4 4 4 4 4 4 5 5 5 5 6
9 9 8 8 8 8 7 7 7 7 7 7 6 6 5 4 4 3 4 4 4 3 3 3 4 4 4 4 4 4 4 4 5 5 5 5 5 5 5 6 6 6 6
10 10 10 10 10 10 9 8 8 8 8 8 8 7 7 6 6 5 5 5 5 5 5 5 5 5 5 5 5 5 5 5 6 6 6 6 6 7 7 7 7 7 7
11 11 11 11 11 11 11 10 9 9 9 9 9 9 9 8 7 7 7 6 7 7 7 7 7 6 7 7 7 7 7 7 7 7 7 7 8 8 8 8 9 9 9
11 11 12 11 11 12 12 11 11 11 11 11 10 10 10 10 10 9 9 9 8 8 9 9 9 9 9 9 9 9 9 9 9 9 9 9 9 10 10 10 10 10 10
12 12 12 12 12 12 12 13 13 12 12 12 12 12 12 12 12 11 11 11 10 10 11 11 11 11 11 11 12 11 11 12 12 12 12 12 12 12 12 12 12 12 13
12 11 12 13 13 12 12 14 14 14 14 14 13 13 13 13 13 13 13 13 13 13 13 13 13 13 13 14 14 14 14 14 14 14 14 15 14 14 15 15 15 15 16
13 13 13 13 13 13 13 14 15 16 15 15 15 15 15 15 16 16 16 15 15 15 15 15 15 16 16 16 16 17 17 17 17 17 17 17 17 17 17 18 18 19 19
13 14 14 14 14 14 14 15 15 16 17 17 18 17 17 17 18 18 18 18 18 18 18 18 18 18 19 19 19 19 19 19 19 19 19 19 20 20 20 20 21 21 21
13 13 14 14 15 15 15 16 17 18 18 18 19 19 19 19 20 20 20 20 20 20 20 20 20 20 21 21 22 22 21 21 22 21 21 22 22 22 23 23 24 24 24
12 13 13 14 14 15 16 17 17 18 19 19 19 20 21 21 22 22 22 22 22 23 23 23 23 23 22 23 23 22 22 23 23 24 24 24 25 26 26 26 26 27 27
12 12 12 13 14 15 16 17 18 19 19 20 20 21 21 22 23 23 23 23 24 24 25 25 25 24 24 24 24 24 25 25 26 26 26 27 28 28 28 29 29 29 30
12 12 13 14 14 15 16 17 18 19 19 20 20 21 22 22 23 23 24 24 24 25 25 25 26 26 26 26 26 26 27 27 27 28 28 29 29 30 31 31 32 32 33
13 13 13 13 14 15 16 17 19 20 20 20 21 21 21 21 22 24 25 25 25 25 25 26 27 27 28 28 28 28 28 28 29 29 30 31 31 31 32 33 34 34 35
12 13 13 13 14 15 16 17 19 20 21 20 21 21 22 22 23 23 24 24 24 25 26 26 27 28 29 29 29 30 30 30 30 31 31 32 32 32 33 34 35 36 37
12 13 13 14 14 15 16 17 18 18 19 19 20 21 22 22 22 23 23 24 25 25 26 27 28 29 29 30 31 31 31 32 32 32 33 34 34 35 36 37 37 38 39
13 14 14 15 15 15 16 16 16 17 18 19 20 21 21 21 21 22 23 24 24 25 26 27 28 30 30 30 31 31 32 33 34 34 35 35 36 36 37 38 37 37 38
14 15 15 14 15 15 16 16 16 17 17 18 19 20 21 21 22 23 23 24 25 26 27 28 29 30 31 31 32 33 34 34 35 35 36 36 36 37 37 37 37 38 39
14 14 15 15 15 16 16 17 17 17 18 18 19 19 20 20 21 23 23 24 25 26 27 29 30 31 32 32 33 33 34 35 36 36 36 36 37 37 37 37 37 38 38
15 16 16 16 16 16 17 17 17 18 19 19 19 19 20 20 21 22 23 24 25 26 28 30 31 31 32 33 33 33 34 35 36 37 37 37 38 37 38 38 38 39 40
14 14 15 15 16 16 16 16 17 18 18 18 19 19 20 20 21 22 23 24 25 27 28 30 31 32 33 33 33 34 34 35 36 37 37 38 38 39 38 38 38 39 39
14 14 15 15 16 16 16 16 17 16 17 18 19 20 20 21 21 23 25 26 27 28 29 30 30 31 32 32 33 33 33 34 34 34 35 35 36 37 37 38 38 37 37
15 16 16 17 17 17 17 18 17 17 18 19 19 20 21 21 22 24 25 26 26 27 28 29 30 31 31 30 31 32 33 33 34 34 34 35 35 35 36 37 37 38 38

GEFSMA_500_meanwind_180.txt.gz
Wind_Speed
4 4 4 4 4 3 3 3 3 2 2 2 2 1 1 0 1 0 0 1 1 1 1 2 2 3 3 3 2 2 2 2 2 2 2 2 2 2 2 2 2 2 3
5 5 4 4 4 4 3 3 3 3 3 3 2 2 1 1 1 1 1 1 1 1 1 2 2 2 2 3 2 2 2 3 3 3 2 2 2 2 3 3 2 2 2
6 6 6 6 6 5 5 4 4 4 4 4 3 3 3 3 2 2 2 2 2 2 2 2 2 3 3 3 3 3 3 3 3 3 3 3 3 3 3 3 3 3 3
8 8 8 8 8 7 6 6 6 5 5 5 5 4 4 4 4 4 4 4 4 3 3 3 3 3 3 3 3 3 4 4 4 4 4 4 4 4 4 4 4 4 5
9 9 9 9 9 8 8 8 7 7 6 7 7 7 6 6 6 6 5 5 5 4 4 4 4 4 4 4 4 4 5 5 5 5 5 6 5 5 6 5 5 5 6
9 10 10 10 10 9 9 8 8 8 8 8 8 8 8 8 7 7 7 7 6 6 6 5 6 6 6 6 6 6 6 6 6 6 7 7 7 7 7 7 7 7 7
9 10 9 9 9 10 10 10 9 9 9 9 9 9 9 9 9 9 9 8 8 8 7 7 7 8 8 8 8 8 8 8 8 8 9 9 9 9 9 9 9 9 9
9 9 9 8 8 10 10 10 11 11 11 11 11 11 10 10 11 11 11 11 11 10 10 9 9 10 10 10 10 10 10 10 11 11 11 11 10 11 11 11 11 12 12
10 9 9 9 9 10 11 12 12 12 12 12 12 11 11 12 12 12 12 12 12 12 12 11 11 11 12 12 13 13 13 13 13 13 14 13 13 13 14 14 14 14 14
11 10 9 9 10 11 12 12 13 13 14 13 13 13 13 13 14 14 14 14 14 14 14 14 13 13 13 13 14 15 15 15 15 15 15 15 16 16 16 17 17 17 17
11 10 10 11 11 11 12 13 14 15 15 15 15 15 15 15 15 16 16 17 16 16 16 16 16 15 15 15 16 17 17 18 18 18 18 18 18 19 18 19 19 20 20
11 11 11 12 12 13 13 14 14 15 16 16 16 16 17 17 18 18 18 18 18 18 19 18 18 18 18 18 18 19 20 20 20 20 20 20 21 21 21 21 22 22 23
12 11 11 12 12 13 13 14 15 15 16 16 17 18 19 19 20 20 19 19 20 20 20 20 20 20 20 20 20 21 21 22 22 22 22 22 23 23 23 24 24 24 25
13 12 12 12 13 13 14 15 16 15 16 17 18 19 19 20 20 21 21 21 21 21 21 21 22 22 22 23 22 23 23 23 24 24 24 24 24 25 25 26 26 27 28
13 12 12 12 12 13 14 15 15 15 16 17 18 19 20 21 20 20 21 22 22 22 22 23 23 24 25 24 24 24 24 24 24 25 26 26 27 27 27 28 29 29 30
15 13 13 13 12 12 13 13 14 15 16 17 19 20 21 22 22 21 22 23 23 23 23 24 25 25 25 24 26 26 26 26 26 27 27 28 28 29 29 30 31 31 31
15 14 14 13 12 12 12 13 14 15 15 16 17 18 18 19 20 22 23 23 23 23 24 24 24 24 25 25 26 26 27 27 28 28 28 29 29 30 31 32 32 32 32
15 14 14 14 14 13 13 14 14 15 15 16 16 17 18 19 20 21 21 22 23 23 23 23 24 25 26 26 26 27 27 28 29 29 29 30 30 30 31 32 33 33 34
14 14 14 14 15 15 15 15 15 15 16 16 16 17 17 18 19 20 21 21 22 23 23 24 24 25 26 27 28 27 27 27 29 29 29 30 31 32 32 33 33 34 35
15 14 14 14 15 15 15 15 15 15 16 16 17 17 17 18 19 20 20 20 21 22 23 23 24 25 26 27 28 28 28 29 29 30 30 31 31 32 33 34 34 35 36
15 15 15 15 15 15 15 15 15 15 15 16 16 17 17 17 18 19 19 20 21 22 22 23 25 26 27 27 28 29 29 29 30 31 32 32 33 34 35 35 35 36 36
16 15 15 15 15 15 15 16 16 16 17 17 17 17 18 17 18 19 19 20 21 22 23 25 26 26 26 28 29 30 30 30 31 32 33 33 34 35 37 37 37 37 37
16 15 15 15 15 16 16 16 16 16 17 17 17 17 18 19 19 20 21 22 22 23 24 25 25 26 27 29 30 30 31 31 32 33 33 34 34 35 35 36 36 36 37
15 16 16 16 16 17 16 16 16 17 18 18 18 18 18 19 19 21 22 22 23 24 25 26 27 27 28 28 29 30 31 32 32 33 34 34 34 35 36 36 36 36 35
16 16 17 16 16 16 17 17 18 18 19 19 19 19 20 20 21 22 22 23 24 24 26 27 28 28 29 29 29 30 31 32 33 33 34 34 34 34 35 35 35 35 35
17 17 17 17 17 17 18 19 19 19 20 19 20 21 22 22 23 23 24 25 25 26 27 27 28 29 30 30 31 31 32 33 33 33 33 34 34 34 34 34 35 35 35